Weather History for Roxboro, NC

Change the Weather History Date:

Sunday, October 17, 2010

  Actual Average Record
Temperature  
Mean Temperature 56 °F -  
Max Temperature 75 °F 71 °F 86 °F (2011)
Min Temperature 37 °F 45 °F 32 °F (1970)
Degree Days  
Heating Degree Days 9    
Growing Degree Days 6 (Base 50)    
Moisture  
Dew Point 40 °F    
Average Humidity 66    
Maximum Humidity 100    
Minimum Humidity 25    
Precipitation  
Precipitation 0.00 in - - ()
Sea Level Pressure  
Sea Level Pressure 30.09 in    
Wind  
Wind Speed 2 mph (WSW)    
Max Wind Speed 10 mph    
Max Gust Speed 16 mph    
Visibility 10 miles    
Events      
Averages and records for this station are not official NWS values.
T = Trace of Precipitation, MM = Missing Value Source: NWS Daily Summary

Daily Weather History Graph

Daily Weather History Graph

Search for Another Location

Airport:

Trip Planner

Search our weather history database for the weather conditions in past years. The results will help you decide how hot, cold, wet, or windy it might be!

Date:

Astronomy

Oct. 17, 2010 Rise Set
Actual Time 7:24 AM EDT 6:37 PM EDT
Civil Twilight 6:58 AM EDT 7:03 PM EDT
Nautical Twilight 6:28 AM EDT 7:33 PM EDT
Astronomical Twilight 5:59 AM EDT 8:02 PM EDT
Moon 3:48 PM EDT (10/17) 2:23 AM EDT (10/17)
Length of Visible Light 12h 04m
Length of Day
11h 12m
Waxing Gibbous, 75% of the Moon is Illuminated
Oct 17
Waxing Gibbous
Oct 22
Full
Oct 30
Last Quarter
Nov 6
New
Nov 13
First Quarter

Hourly Weather History & Observations

Time (EDT) Temp. Dew Point Humidity Pressure Visibility Wind Dir Wind Speed Gust Speed Precip Events Conditions
12:01 AM 41.0 °F 41.0 °F 100% 30.11 in 10.0 mi Calm Calm - N/A   Clear
12:21 AM 41.0 °F 41.0 °F 100% 30.11 in 7.0 mi Calm Calm - N/A   Clear
12:41 AM 39.2 °F 39.2 °F 100% 30.10 in 10.0 mi Calm Calm - N/A   Clear
1:01 AM 41.0 °F 39.2 °F 93% 30.11 in 10.0 mi Calm Calm - N/A   Clear
1:21 AM 41.0 °F 39.2 °F 93% 30.11 in 10.0 mi Calm Calm - N/A   Clear
1:41 AM 39.2 °F 39.2 °F 100% 30.11 in 10.0 mi Calm Calm - N/A   Clear
2:01 AM 41.0 °F 39.2 °F 93% 30.11 in 10.0 mi Calm Calm - N/A   Clear
2:21 AM 42.8 °F 41.0 °F 93% 30.11 in 10.0 mi Calm Calm - N/A   Clear
2:41 AM 42.8 °F 39.2 °F 87% 30.11 in 10.0 mi Calm Calm - N/A   Clear
3:01 AM 44.6 °F 39.2 °F 81% 30.10 in 10.0 mi Calm Calm - N/A   Clear
3:21 AM 44.6 °F 37.4 °F 76% 30.10 in 10.0 mi Calm Calm - N/A   Clear
3:41 AM 42.8 °F 39.2 °F 87% 30.10 in 10.0 mi Calm Calm - N/A   Clear
4:01 AM 42.8 °F 39.2 °F 87% 30.10 in 10.0 mi Calm Calm - N/A   Clear
4:21 AM 39.2 °F 37.4 °F 93% 30.10 in 10.0 mi Calm Calm - N/A   Clear
4:41 AM 39.2 °F 37.4 °F 93% 30.10 in 10.0 mi Calm Calm - N/A   Clear
5:01 AM 39.2 °F 39.2 °F 100% 30.11 in 10.0 mi Calm Calm - N/A   Clear
5:21 AM 39.2 °F 37.4 °F 93% 30.11 in 10.0 mi Calm Calm - N/A   Clear
5:41 AM 39.2 °F 39.2 °F 100% 30.11 in 10.0 mi Calm Calm - N/A   Clear
6:01 AM 39.2 °F 37.4 °F 93% 30.12 in 10.0 mi Calm Calm - N/A   Clear
6:22 AM 37.4 °F 37.4 °F 100% 30.13 in 10.0 mi Calm Calm - N/A   Clear
6:41 AM 37.4 °F 37.4 °F 100% 30.13 in 10.0 mi Calm Calm - N/A   Clear
7:01 AM 37.4 °F 37.4 °F 100% 30.13 in 10.0 mi Calm Calm - N/A   Clear
7:21 AM 39.2 °F 39.2 °F 100% 30.13 in 10.0 mi Calm Calm - N/A   Clear
7:41 AM 37.4 °F 37.4 °F 100% 30.13 in 10.0 mi Calm Calm - N/A   Clear
8:01 AM 39.2 °F 39.2 °F 100% 30.14 in 10.0 mi Calm Calm - N/A   Clear
8:21 AM 41.0 °F 39.2 °F 93% 30.14 in 10.0 mi Calm Calm - N/A   Clear
8:41 AM 44.6 °F 42.8 °F 93% 30.15 in 10.0 mi Calm Calm - N/A   Clear
9:00 AM 48.2 °F 44.6 °F 87% - 10.0 mi Calm Calm - N/A   Clear
9:21 AM 53.6 °F 46.4 °F 77% 30.14 in 10.0 mi Calm Calm - N/A   Clear
9:42 AM 59.0 °F 44.6 °F 59% 30.14 in 10.0 mi Calm Calm - N/A   Clear
10:01 AM 62.6 °F 44.6 °F 52% 30.13 in 10.0 mi Calm Calm - N/A   Clear
10:21 AM 64.4 °F 44.6 °F 49% 30.13 in 10.0 mi WNW 3.5 mph - N/A   Clear
10:41 AM 66.2 °F 42.8 °F 43% 30.13 in 10.0 mi West 5.8 mph - N/A   Clear
11:01 AM 66.2 °F 41.0 °F 40% 30.13 in 10.0 mi West 5.8 mph - N/A   Clear
11:21 AM 69.8 °F 39.2 °F 33% 30.12 in 10.0 mi WNW 5.8 mph - N/A   Clear
11:41 AM 69.8 °F 39.2 °F 33% 30.11 in 10.0 mi WSW 5.8 mph - N/A   Clear
12:01 PM 71.6 °F 39.2 °F 31% 30.11 in 10.0 mi West 4.6 mph - N/A   Clear
12:21 PM 71.6 °F 37.4 °F 29% 30.11 in 10.0 mi SW 8.1 mph - N/A   Clear
12:41 PM 71.6 °F 39.2 °F 31% 30.10 in 10.0 mi SW 5.8 mph - N/A   Clear
1:01 PM 73.4 °F 39.2 °F 29% 30.08 in 10.0 mi SW 6.9 mph - N/A   Clear
1:21 PM 73.4 °F 37.4 °F 27% 30.07 in 10.0 mi WSW 6.9 mph - N/A   Clear
1:41 PM 73.4 °F 37.4 °F 27% 30.06 in 10.0 mi West 6.9 mph - N/A   Clear
2:01 PM 75.2 °F 39.2 °F 27% 30.05 in 10.0 mi WSW 8.1 mph - N/A   Clear
2:21 PM 73.4 °F 42.8 °F 33% 30.04 in 10.0 mi West 6.9 mph - N/A   Clear
2:41 PM 73.4 °F 39.2 °F 29% 30.02 in 10.0 mi SSW 8.1 mph - N/A   Clear
3:01 PM 75.2 °F 37.4 °F 25% 30.02 in 10.0 mi SW 10.4 mph - N/A   Clear
3:21 PM 73.4 °F 37.4 °F 27% 30.01 in 10.0 mi SSW 10.4 mph - N/A   Clear
3:41 PM 75.2 °F 37.4 °F 25% 30.01 in 10.0 mi SW 6.9 mph 16.1 mph N/A   Clear
4:01 PM 75.2 °F 39.2 °F 27% 30.01 in 10.0 mi SW 5.8 mph 9.2 mph N/A   Clear
4:21 PM 75.2 °F 39.2 °F 27% 30.00 in 10.0 mi SW 6.9 mph - N/A   Clear
4:41 PM 75.2 °F 39.2 °F 27% 30.00 in 10.0 mi West 5.8 mph - N/A   Clear
5:00 PM 75.2 °F 39.2 °F 27% - 10.0 mi WSW 6.9 mph - N/A   Clear
5:21 PM 73.4 °F 37.4 °F 27% 30.00 in 10.0 mi WSW 4.6 mph - N/A   Clear
5:41 PM 73.4 °F 39.2 °F 29% 30.00 in 10.0 mi SW 5.8 mph - N/A   Clear
6:01 PM 71.6 °F 42.8 °F 35% 30.00 in 10.0 mi Calm Calm - N/A   Clear
6:21 PM 66.2 °F 46.4 °F 49% 30.00 in 10.0 mi Calm Calm - N/A   Clear
6:41 PM 62.6 °F 48.2 °F 59% 30.00 in 10.0 mi Calm Calm - N/A   Clear
7:01 PM 60.8 °F 48.2 °F 63% 30.00 in 10.0 mi SW 3.5 mph - N/A   Clear
7:21 PM 57.2 °F 48.2 °F 72% 30.00 in 10.0 mi Calm Calm - N/A   Clear
7:41 PM 57.2 °F 46.4 °F 67% 30.01 in 10.0 mi Calm Calm - N/A   Clear
8:01 PM 57.2 °F 46.4 °F 67% 30.01 in 10.0 mi Calm Calm - N/A   Clear
8:21 PM 55.4 °F 46.4 °F 72% 30.01 in 10.0 mi Calm Calm - N/A   Clear
8:41 PM 55.4 °F 46.4 °F 72% 30.01 in 10.0 mi Calm Calm - N/A   Clear
9:01 PM 55.4 °F 46.4 °F 72% 30.01 in 10.0 mi Calm Calm - N/A   Clear
9:21 PM 53.6 °F 46.4 °F 77% 30.01 in 10.0 mi Calm Calm - N/A   Clear
9:41 PM 53.6 °F 46.4 °F 77% 30.02 in 10.0 mi Calm Calm - N/A   Clear
10:01 PM 53.6 °F 46.4 °F 77% 30.02 in 10.0 mi Calm Calm - N/A   Clear
10:21 PM 55.4 °F 46.4 °F 72% 30.02 in 10.0 mi Calm Calm - N/A   Clear
10:41 PM 51.8 °F 44.6 °F 76% 30.02 in 10.0 mi Calm Calm - N/A   Clear
11:01 PM 53.6 °F 46.4 °F 77% 30.02 in 10.0 mi Calm Calm - N/A   Clear
11:21 PM 51.8 °F 46.4 °F 82% 30.02 in 10.0 mi Calm Calm - N/A   Clear
11:41 PM 51.8 °F 46.4 °F 82% 30.02 in 10.0 mi Calm Calm - N/A   Clear